Flag for U.S.A. Weather past 2 weeks in Sterling Heights, Michigan, U.S.A.

Now
70 °F

Passing clouds.


Feels Like: 70 °F
Forecast: 68 / 80 °F
Wind: 5 mph from Southwest

Location: Selfridge Air National Guard Base

Current Time: Sep 1, 2014 at 11:29:24 PM

Latest Report: Sep 1, 2014 at 10:58 PM


Visibility: 10 mi

Pressure: 29.82 "Hg

Humidity: 100%

Dew point: 70 °F

Location of Sterling HeightsLocation

Historic Weather in Sterling Heights — Graph

°F

Sterling Heights temperature yesterday

Maximum temperature yesterday: 85 °F (at 2:55 PM)
Minimum temperature yesterday: 70 °F (at 6:58 AM)
Average temperature yesterday: 76 °F

Past Weeks' High & Low Weather Summary

 TemperatureHumidityPressure
High88 °F (Aug 26, 2:55 PM)100% (Aug 19, 9:58 PM)30.19 "Hg (Aug 19, 9:58 PM)
Low56 °F (Aug 28, 6:58 AM)49% (Aug 26, 12:55 PM)29.73 "Hg (Sep 1, 5:58 PM)
Average71 °F77%30.00 "Hg
* Reported Aug 17 9:58 PM — Sep 1 9:58 PM, Sterling Heights, Weather by CustomWeather, © 2014

Note: Actual official high and low records may vary slightly from our data, if they occured in-between our weather recording intervals... More about our weather records

Advertising

Sterling Heights weather history for previous 24 hours

 ConditionsComfort  
Time TempWeatherWind HumidityBarometerVisibility
9:58 PM
Sep 1
70 °FFog.2 mph99%29.81 "Hg1 mi
8:58 PM72 °FSunny.No wind99%29.80 "Hg10 mi
7:58 PM72 °FScattered clouds.3 mph91%29.77 "Hg10 mi
7:03 PM72 °FThunderstorms. Scattered clouds.8 mph88%29.78 "Hg9 mi
5:58 PM82 °FPassing clouds.15 mph66%29.73 "Hg10 mi
4:58 PM81 °FPassing clouds.15 mph69%29.75 "Hg10 mi
3:58 PM80 °FScattered clouds.15 mph71%29.78 "Hg10 mi
2:58 PM80 °FPassing clouds.17 mph72%29.79 "Hg10 mi
1:58 PM80 °FPassing clouds.15 mph71%29.83 "Hg10 mi
12:58 PM76 °FScattered clouds.13 mph86%29.85 "Hg10 mi
12:04 PM75 °FLight rain. Broken clouds.14 mph83%29.86 "Hg10 mi
11:58 AM77 °FPartly sunny.13 mph79%29.87 "Hg10 mi
11:03 AM79 °FMostly cloudy.12 mph74%29.88 "Hg10 mi
10:58 AM78 °FMostly cloudy.9 mph75%29.88 "Hg10 mi
9:58 AM77 °FScattered clouds.7 mph78%29.89 "Hg10 mi
8:58 AM74 °FPartly sunny.8 mph85%29.90 "Hg10 mi
7:58 AM72 °FSunny.5 mph90%29.91 "Hg10 mi
6:58 AM69 °FClear.6 mph94%29.91 "Hg9 mi
5:58 AM71 °FClear.5 mph92%29.91 "Hg10 mi
4:58 AM72 °FClear.6 mph90%29.91 "Hg10 mi
3:58 AM72 °FClear.6 mph89%29.92 "Hg10 mi
2:58 AM73 °FClear.7 mph87%29.92 "Hg10 mi
1:58 AM71 °FClear.5 mph90%29.92 "Hg10 mi
12:58 AM71 °FClear.2 mph89%29.91 "Hg10 mi
11:58 PM
Aug 31
71 °FPassing clouds.2 mph88%29.91 "Hg10 mi
Weather by CustomWeather, © 2014

See weather overviewHow to use our weather pages